GW0714 Weather Reports


Display with metric or nautical units.
time (UTC)temp
F
wind
direction
speed
MPH
gust
MPH
rain 1hr
in
rain 24hr
in
rain mn
in
humidity
%
barometer
mb
20240220212531 55 317 5.0 17.0 0.00 0.39 0.02 69 1019.1
20240220212030 55 360 3.0 10.0 0.00 0.39 0.02 71 1019.2
20240220211541 55 9 3.0 10.0 0.00 0.39 0.02 71 1019.1
20240220211033 55 334 4.0 10.0 0.00 0.39 0.02 70 1019.2
20240220210532 55 327 5.0 11.0 0.00 0.39 0.02 69 1019.2
20240220210033 54 360 3.0 11.0 0.00 0.39 0.02 72 1019.3
20240220205528 54 322 5.0 11.0 0.00 0.39 0.02 72 1019.4
20240220205035 54 24 3.0 11.0 0.00 0.39 0.02 74 1019.4
20240220204535 54 5 3.0 15.0 0.00 0.39 0.02 74 1019.4
20240220204031 54 331 5.0 15.0 0.00 0.39 0.02 72 1019.6
20240220203530 54 348 7.0 15.0 0.00 0.39 0.02 69 1019.5
20240220203033 54 329 4.0 11.0 0.00 0.39 0.02 70 1019.7
20240220202531 55 5 5.0 11.0 0.00 0.39 0.02 70 1019.6
20240220202029 54 345 2.0 10.0 0.00 0.39 0.02 71 1019.7
20240220201543 54 341 3.0 10.0 0.00 0.39 0.02 70 1019.8
20240220201032 54 19 2.0 9.0 0.00 0.39 0.02 70 1020.0
20240220200534 54 304 3.0 13.0 0.00 0.39 0.02 70 1020.0
20240220200040 54 285 5.0 13.0 0.00 0.39 0.02 69 1020.1
20240220195530 54 325 5.0 13.0 0.00 0.39 0.02 68 1020.3
20240220195034 54 329 6.0 12.0 0.00 0.39 0.02 69 1020.4
20240220194544 54 331 4.0 12.0 0.00 0.39 0.02 68 1020.4
20240220194031 54 321 4.0 13.0 0.00 0.39 0.02 68 1020.5
20240220193531 54 332 5.0 14.0 0.00 0.39 0.02 68 1020.4
20240220193040 54 329 6.0 14.0 0.00 0.39 0.02 68 1020.6
20240220192529 54 327 6.0 14.0 0.00 0.39 0.02 68 1020.5
20240220192031 55 302 2.0 13.0 0.00 0.39 0.02 70 1020.6
20240220191535 55 324 3.0 11.0 0.00 0.39 0.02 68 1020.6
20240220191031 55 32 4.0 11.0 0.00 0.39 0.02 70 1020.6
20240220190530 55 273 2.0 10.0 0.00 0.39 0.02 71 1020.6
20240220190043 54 336 4.0 10.0 0.00 0.39 0.02 70 1020.7
20240220185530 54 284 2.0 8.0 0.00 0.39 0.02 72 1020.8
20240220185031 54 302 3.0 8.0 0.00 0.39 0.02 74 1020.9
20240220184534 53 0 2.0 8.0 0.00 0.39 0.02 77 1020.9
20240220184031 53 340 1.0 9.0 0.00 0.39 0.02 78 1020.9
20240220183531 53 338 3.0 9.0 0.00 0.39 0.02 77 1021.0
20240220183049 53 339 3.0 9.0 0.00 0.39 0.02 78 1021.0
20240220182533 52 317 4.0 9.0 0.00 0.39 0.02 79 1021.0
20240220182031 52 320 4.0 9.0 0.00 0.39 0.02 78 1021.0
20240220181536 52 327 5.0 10.0 0.00 0.39 0.02 79 1020.9
20240220181031 53 327 5.0 12.0 0.00 0.39 0.02 79 1020.9
20240220180531 53 342 2.0 12.0 0.00 0.39 0.02 79 1020.9
20240220180036 53 319 3.0 12.0 0.00 0.39 0.02 78 1020.8
20240220175533 53 338 4.0 12.0 0.00 0.39 0.02 78 1020.8
20240220175030 53 352 3.0 12.0 0.00 0.39 0.02 79 1021.0
20240220174559 52 320 3.0 12.0 0.00 0.39 0.02 81 1021.0
20240220174032 52 327 4.0 11.0 0.00 0.39 0.02 81 1021.0
20240220173530 51 313 5.0 11.0 0.00 0.39 0.02 81 1021.1
20240220173037 51 330 4.0 10.0 0.00 0.39 0.02 80 1021.0
20240220172530 51 298 2.0 9.0 0.00 0.39 0.02 81 1020.9
20240220172030 50 318 3.0 12.0 0.00 0.39 0.02 81 1020.7
20240220171543 50 258 2.0 12.0 0.00 0.39 0.02 81 1020.8
20240220171032 50 338 2.0 9.0 0.00 0.39 0.02 82 1020.8
20240220170531 50 255 2.0 9.0 0.00 0.39 0.02 82 1020.8
20240220170031 49 233 2.0 8.0 0.00 0.39 0.02 82 1020.9
20240220165531 49 305 1.0 8.0 0.00 0.39 0.02 82 1020.9
20240220165030 49 316 1.0 6.0 0.00 0.39 0.02 82 1020.9
20240220164534 49 360 2.0 8.0 0.00 0.39 0.02 82 1020.8
20240220164031 49 250 2.0 8.0 0.00 0.39 0.02 82 1020.9
20240220163528 49 348 2.0 6.0 0.00 0.39 0.02 82 1020.9
20240220163039 49 274 1.0 8.0 0.00 0.39 0.02 83 1020.8
20240220162529 48 311 2.0 8.0 0.00 0.39 0.02 83 1020.8
20240220162031 48 336 1.0 4.0 0.00 0.39 0.02 84 1020.7
20240220161538 48 311 1.0 4.0 0.00 0.39 0.02 84 1020.7
20240220161032 48 334 1.0 4.0 0.00 0.39 0.02 85 1020.6
20240220160529 48 296 1.0 4.0 0.00 0.39 0.02 85 1020.6
20240220160042 48 275 0.0 5.0 0.00 0.39 0.02 86 1020.6
20240220155531 48 0 1.0 5.0 0.00 0.39 0.02 86 1020.5
20240220155030 48 256 1.0 3.0 0.00 0.39 0.02 86 1020.4
20240220154536 48 263 1.0 3.0 0.00 0.39 0.02 87 1020.4
20240220154033 48 281 1.0 4.0 0.00 0.39 0.02 87 1020.3
20240220153531 48 294 1.0 7.0 0.00 0.39 0.02 86 1020.4
20240220153036 48 225 1.0 7.0 0.00 0.39 0.02 86 1020.2
20240220152531 47 352 2.0 9.0 0.00 0.39 0.02 86 1020.3
20240220152030 47 313 1.0 9.0 0.00 0.39 0.02 86 1020.1
20240220151547 47 360 3.0 9.0 0.00 0.39 0.02 86 1020.0
20240220151030 47 271 3.0 9.0 0.00 0.39 0.02 87 1020.1
20240220150531 47 65 3.0 9.0 0.00 0.39 0.02 86 1020.0
20240220150036 48 258 3.0 9.0 0.00 0.39 0.02 85 1020.1
20240220145529 48 349 2.0 5.0 0.00 0.40 0.02 84 1020.0
20240220145029 48 0 1.0 6.0 0.00 0.40 0.02 83 1020.0
20240220144541 48 0 1.0 6.0 0.00 0.40 0.02 83 1019.8
20240220144031 48 336 2.0 5.0 0.00 0.40 0.02 83 1019.8
20240220143529 48 289 2.0 6.0 0.00 0.40 0.02 83 1019.8
20240220143034 48 315 2.0 6.0 0.00 0.40 0.02 83 1019.7
20240220142534 48 292 1.0 5.0 0.00 0.40 0.02 83 1019.7
20240220142031 48 299 1.0 6.0 0.00 0.40 0.02 83 1019.8
20240220141536 48 309 2.0 6.0 0.00 0.40 0.02 83 1019.7
20240220141028 48 0 1.0 4.0 0.00 0.40 0.02 83 1019.7
20240220140530 48 316 1.0 4.0 0.00 0.40 0.02 83 1019.7
20240220140035 48 315 1.0 4.0 0.00 0.40 0.02 83 1019.7
20240220135533 48 291 1.0 4.0 0.00 0.40 0.02 83 1019.6
20240220135030 48 277 1.0 4.0 0.00 0.40 0.02 83 1019.7
20240220134536 48 313 1.0 5.0 0.00 0.40 0.02 83 1019.7
20240220134031 48 289 1.0 5.0 0.00 0.40 0.02 83 1019.6
20240220133530 48 335 2.0 6.0 0.00 0.40 0.02 83 1019.6
20240220133037 48 285 2.0 6.0 0.00 0.40 0.02 83 1019.6
20240220132530 48 352 1.0 9.0 0.00 0.40 0.02 83 1019.6
20240220132028 48 288 1.0 9.0 0.00 0.40 0.02 83 1019.5
20240220131545 48 279 2.0 8.0 0.00 0.40 0.02 83 1019.4
20240220131029 48 352 2.0 10.0 0.00 0.40 0.02 83 1019.4
20240220130531 48 329 3.0 10.0 0.00 0.40 0.02 83 1019.3
20240220130036 48 269 3.0 10.0 0.00 0.40 0.02 83 1019.3
20240220125530 48 5 1.0 9.0 0.00 0.40 0.02 84 1019.3
20240220125031 48 332 2.0 10.0 0.00 0.40 0.02 83 1019.3
20240220124538 48 338 3.0 10.0 0.00 0.40 0.02 84 1019.2
20240220124030 48 9 1.0 9.0 0.00 0.40 0.02 84 1019.1
20240220123531 48 263 2.0 9.0 0.00 0.40 0.02 84 1019.1
20240220123036 48 317 2.0 9.0 0.00 0.40 0.02 84 1018.9
20240220122532 48 312 2.0 9.0 0.00 0.40 0.02 85 1018.9
20240220122030 48 304 2.0 9.0 0.00 0.40 0.02 85 1018.8
20240220121544 48 283 2.0 9.0 0.00 0.40 0.02 85 1018.9
20240220121033 48 5 2.0 10.0 0.00 0.40 0.02 86 1018.9
20240220120530 48 337 1.0 10.0 0.00 0.40 0.02 86 1018.7
20240220120034 48 344 1.0 6.0 0.00 0.40 0.02 86 1018.7
20240220115531 47 360 2.0 6.0 0.00 0.43 0.02 87 1018.7
20240220115029 48 313 2.0 10.0 0.00 0.43 0.02 87 1018.8
20240220114537 48 225 3.0 10.0 0.00 0.43 0.02 87 1018.6
20240220114030 47 245 2.0 8.0 0.00 0.43 0.02 88 1018.7
20240220113530 47 17 2.0 8.0 0.00 0.43 0.02 88 1018.7
20240220113044 47 293 2.0 5.0 0.00 0.43 0.02 89 1018.6
20240220112530 47 263 2.0 5.0 0.00 0.43 0.02 89 1018.6
20240220112030 47 228 1.0 4.0 0.00 0.43 0.02 89 1018.6
20240220111533 47 306 1.0 4.0 0.00 0.43 0.02 90 1018.6
20240220111028 47 266 1.0 4.0 0.00 0.43 0.02 90 1018.7
20240220110528 47 284 2.0 9.0 0.00 0.43 0.02 90 1018.6
20240220110032 47 312 1.0 9.0 0.00 0.43 0.02 91 1018.6
20240220105530 47 261 2.0 9.0 0.00 0.50 0.02 91 1018.6
20240220105028 47 315 1.0 4.0 0.00 0.50 0.02 92 1018.5
20240220104530 47 285 1.0 4.0 0.00 0.50 0.02 92 1018.5
20240220104034 47 275 1.0 4.0 0.01 0.50 0.02 92 1018.6
20240220103531 47 275 1.0 4.0 0.01 0.50 0.02 92 1018.6
20240220103030 47 232 1.0 4.0 0.02 0.50 0.02 92 1018.6
20240220102530 47 296 1.0 5.0 0.02 0.50 0.02 92 1018.6
20240220102110 47 261 1.0 5.0 0.02 0.50 0.02 92 1018.6
20240220101542 47 287 1.0 8.0 0.02 0.50 0.02 92 1018.7
20240220101033 47 232 2.0 8.0 0.02 0.50 0.02 92 1018.7
20240220100531 47 271 1.0 9.0 0.02 0.50 0.02 92 1018.7
20240220100034 47 275 1.0 9.0 0.02 0.50 0.02 92 1018.7
20240220095534 47 352 3.0 9.0 0.02 0.58 0.02 92 1018.7
20240220095030 48 338 3.0 11.0 0.02 0.58 0.02 91 1018.8
20240220094537 48 330 3.0 12.0 0.02 0.58 0.02 91 1018.9
20240220094030 48 346 5.0 14.0 0.01 0.58 0.01 90 1018.9
20240220093528 48 10 4.0 14.0 0.00 0.57 0.00 89 1019.0
20240220093044 48 314 4.0 16.0 0.00 0.57 0.00 89 1019.0
20240220092529 48 136 3.0 16.0 0.00 0.57 0.00 89 1018.9
20240220092031 48 5 4.0 10.0 0.00 0.57 0.00 89 1019.2
20240220091540 48 299 6.0 10.0 0.00 0.57 0.00 89 1019.1
20240220091031 48 5 4.0 9.0 0.00 0.57 0.00 89 1019.1
20240220090530 48 288 2.0 10.0 0.00 0.57 0.00 90 1018.9
20240220090049 48 348 2.0 11.0 0.00 0.57 0.00 90 1018.8
20240220085531 49 260 3.0 11.0 0.00 0.70 0.00 90 1018.7
20240220085030 48 348 4.0 10.0 0.00 0.70 0.00 89 1018.7
20240220084535 48 5 2.0 9.0 0.00 0.70 0.00 90 1018.6
20240220084032 48 311 4.0 11.0 0.00 0.70 0.00 90 1018.7
20240220083531 49 324 3.0 12.0 0.00 0.70 0.00 90 1018.6
20240220083038 49 342 6.0 12.0 0.00 0.70 0.00 90 1018.6
20240220082531 48 335 3.0 11.0 0.00 0.70 0.00 90 1018.6
20240220082029 48 329 2.0 11.0 0.00 0.70 0.00 91 1018.6
20240220081541 48 321 3.0 11.0 0.00 0.70 0.00 91 1018.5
20240220081032 48 305 3.0 10.0 0.00 0.70 0.00 91 1018.4
20240220080531 48 331 2.0 9.0 0.00 0.70 0.00 91 1018.4
20240220080037 48 360 2.0 9.0 0.00 0.70 0.00 91 1018.5
20240220075531 48 340 2.0 8.0 0.00 0.91 0.70 91 1018.5
20240220075029 48 312 3.0 8.0 0.00 0.91 0.70 91 1018.5
20240220074542 48 292 2.0 8.0 0.00 0.91 0.70 92 1018.4
20240220074030 48 13 3.0 9.0 0.00 0.91 0.70 92 1018.4
20240220073532 48 323 2.0 9.0 0.00 0.91 0.70 92 1018.3
20240220073034 48 0 2.0 9.0 0.00 0.91 0.70 93 1018.2
20240220072532 48 0 1.0 9.0 0.00 0.91 0.70 93 1018.4
20240220072031 48 345 2.0 6.0 0.00 0.91 0.70 93 1018.4
20240220071538 48 342 2.0 5.0 0.00 0.91 0.70 93 1018.4
20240220071027 48 288 2.0 5.0 0.00 0.91 0.70 94 1018.3
20240220070530 48 284 1.0 5.0 0.00 0.91 0.70 94 1018.4
20240220070031 48 0 1.0 9.0 0.00 0.91 0.70 94 1018.4
20240220065529 48 313 2.0 9.0 0.00 1.02 0.70 94 1018.4
20240220065035 48 317 1.0 4.0 0.00 1.02 0.70 94 1018.3
20240220064534 48 328 2.0 6.0 0.00 1.02 0.70 95 1018.4
20240220064029 48 263 1.0 6.0 0.00 1.02 0.70 94 1018.3
20240220063528 48 269 2.0 6.0 0.00 1.02 0.70 95 1018.2
20240220063030 48 298 1.0 5.0 0.00 1.02 0.70 95 1018.2
20240220062530 47 297 1.0 5.0 0.00 1.02 0.70 95 1018.2
20240220062030 47 277 1.0 4.0 0.00 1.02 0.70 95 1018.3
20240220061528 47 267 1.0 4.0 0.00 1.02 0.70 95 1018.2
20240220061032 47 296 1.0 4.0 0.00 1.02 0.70 95 1018.2
20240220060530 47 283 1.0 4.0 0.00 1.02 0.70 95 1018.2
20240220060036 47 248 1.0 4.0 0.00 1.02 0.70 95 1018.1
20240220055529 47 261 1.0 4.0 0.00 1.03 0.70 95 1018.1
20240220055033 47 281 2.0 6.0 0.00 1.03 0.70 95 1018.1
20240220054534 47 267 1.0 6.0 0.00 1.03 0.70 95 1017.9
20240220054030 47 284 1.0 5.0 0.00 1.03 0.70 95 1018.1
20240220053530 47 269 1.0 3.0 0.00 1.03 0.70 95 1018.0
20240220053032 47 286 1.0 3.0 0.00 1.03 0.70 95 1018.0
20240220052532 47 268 1.0 3.0 0.00 1.03 0.70 95 1017.8
20240220052029 47 273 1.0 3.0 0.01 1.03 0.70 95 1017.8
20240220051532 47 267 0.0 5.0 0.01 1.03 0.70 95 1017.7
20240220051030 47 279 0.0 5.0 0.01 1.03 0.70 95 1017.7
20240220050531 47 260 0.0 2.0 0.02 1.03 0.70 95 1017.6
20240220050031 47 0 0.0 2.0 0.02 1.03 0.70 94 1017.5
20240220045530 47 303 0.0 9.0 0.02 1.04 0.70 94 1017.6
20240220045033 47 284 1.0 9.0 0.02 1.04 0.70 94 1017.4
20240220044536 47 348 4.0 9.0 0.02 1.04 0.70 94 1017.5
20240220044029 47 307 2.0 11.0 0.02 1.04 0.70 93 1017.3
20240220043529 47 5 4.0 11.0 0.02 1.04 0.70 93 1017.1
20240220043032 47 5 5.0 11.0 0.02 1.04 0.70 93 1017.3
20240220042530 48 344 5.0 10.0 0.02 1.04 0.70 93 1016.8
20240220042030 48 110 3.0 13.0 0.01 1.04 0.69 94 1016.7
20240220041527 48 56 5.0 14.0 0.01 1.04 0.69 94 1017.0
20240220041032 48 19 8.0 14.0 0.01 1.04 0.69 94 1017.3
20240220040530 48 307 5.0 10.0 0.00 1.03 0.68 94 1017.1
20240220040033 48 346 3.0 13.0 0.00 1.03 0.68 94 1016.9
20240220035530 48 352 5.0 13.0 0.00 1.03 0.68 94 1016.8
20240220035035 49 22 7.0 13.0 0.00 1.03 0.68 94 1016.7
20240220034538 49 19 4.0 13.0 0.00 1.03 0.68 94 1016.5
20240220034030 49 316 7.0 13.0 0.00 1.03 0.68 94 1016.4
20240220033529 49 19 4.0 10.0 0.00 1.03 0.68 94 1016.3
20240220033031 49 35 6.0 12.0 0.00 1.03 0.68 95 1016.3
20240220032530 49 16 6.0 12.0 0.00 1.03 0.68 94 1016.3
20240220032028 49 352 5.0 12.0 0.00 1.03 0.68 95 1016.0
20240220031532 48 15 3.0 10.0 0.00 1.03 0.68 95 1015.8
20240220031029 48 19 4.0 10.0 0.00 1.03 0.68 95 1015.7
20240220030529 48 5 4.0 10.0 0.00 1.03 0.68 95 1015.5
20240220030039 48 330 3.0 9.0 0.00 1.03 0.68 95 1015.5
20240220025528 48 346 3.0 9.0 0.00 1.03 0.68 95 1015.7
20240220025029 48 352 3.0 11.0 0.00 1.03 0.68 95 1015.6
20240220024530 48 333 4.0 11.0 0.01 1.03 0.68 95 1015.5
20240220024031 48 340 5.0 11.0 0.01 1.03 0.68 95 1015.5
20240220023530 48 23 1.0 9.0 0.02 1.03 0.68 95 1015.3
20240220023034 48 5 3.0 11.0 0.03 1.03 0.68 95 1015.2
20240220022532 48 308 3.0 11.0 0.03 1.03 0.68 95 1015.0
20240220022032 48 42 3.0 13.0 0.03 1.03 0.68 95 1015.1
20240220021535 48 352 3.0 13.0 0.03 1.03 0.68 95 1015.1
20240220021029 48 331 5.0 13.0 0.04 1.03 0.68 95 1015.0
20240220020531 48 325 5.0 15.0 0.08 1.03 0.68 95 1014.9
20240220020035 48 76 2.0 15.0 0.10 1.03 0.68 94 1014.7
20240220015528 48 62 4.0 11.0 0.13 1.03 0.68 94 1014.8
20240220015030 48 352 3.0 12.0 0.20 1.02 0.67 94 1014.7
20240220014549 49 54 4.0 12.0 0.20 1.02 0.67 94 1014.8
20240220014027 49 5 3.0 10.0 0.20 1.02 0.67 94 1014.6
20240220013530 49 106 2.0 10.0 0.19 1.01 0.66 94 1014.2
20240220013032 49 336 3.0 10.0 0.18 1.00 0.65 94 1014.1
20240220012527 49 48 3.0 11.0 0.19 1.00 0.65 93 1014.2
20240220012030 49 329 4.0 14.0 0.19 1.00 0.65 93 1014.2
20240220011540 49 340 4.0 23.0 0.22 1.00 0.65 93 1014.2
20240220011029 49 22 7.0 23.0 0.28 0.99 0.64 92 1014.2
20240220010530 49 44 5.0 17.0 0.24 0.95 0.60 93 1014.2
20240220010037 49 71 5.0 14.0 0.22 0.93 0.58 92 1014.1
20240220005533 50 351 6.0 13.0 0.16 0.87 0.52 91 1014.0
20240220005029 49 16 4.0 11.0 0.11 0.82 0.47 92 1013.5
20240220004534 49 350 6.0 11.0 0.12 0.82 0.47 92 1013.7
20240220004033 49 331 6.0 13.0 0.13 0.82 0.47 92 1013.8
20240220003530 49 19 7.0 17.0 0.13 0.82 0.47 92 1014.0
20240220003056 48 5 5.0 17.0 0.13 0.82 0.47 90 1014.2
20240220002530 48 321 4.0 20.0 0.12 0.81 0.46 89 1014.0
20240220002030 49 38 6.0 20.0 0.12 0.81 0.46 87 1013.8
20240220001538 52 5 6.0 20.0 0.07 0.76 0.41 85 1014.5
20240220001032 53 313 8.0 15.0 0.02 0.71 0.36 80 1013.4
20240220000526 53 338 6.0 15.0 0.02 0.71 0.36 80 1013.0
20240220000032 53 298 7.0 18.0 0.02 0.71 0.36 80 1013.2
20240219235529 53 5 7.0 29.0 0.02 0.71 0.36 82 1013.1
20240219235029 53 340 12.0 29.0 0.02 0.71 0.36 82 1013.2
20240219234535 53 360 9.0 20.0 0.01 0.70 0.35 82 1013.1
20240219234029 53 352 3.0 12.0 0.00 0.69 0.34 81 1012.7
20240219233532 53 331 3.0 12.0 0.00 0.69 0.34 81 1012.7
20240219233040 53 311 5.0 12.0 0.00 0.69 0.34 81 1012.9
20240219232530 53 292 3.0 10.0 0.00 0.69 0.34 81 1013.1
20240219232030 53 263 3.0 10.0 0.00 0.69 0.34 81 1013.1
20240219231539 52 350 3.0 12.0 0.00 0.69 0.34 80 1013.1
20240219231028 52 327 6.0 14.0 0.00 0.69 0.34 81 1013.1
20240219230532 53 17 6.0 14.0 0.00 0.69 0.34 81 1013.1
20240219230034 52 38 4.0 11.0 0.01 0.69 0.34 81 1013.1
20240219225532 52 61 5.0 11.0 0.01 0.69 0.34 81 1013.0
20240219225029 52 25 5.0 11.0 0.01 0.69 0.34 80 1013.0
20240219224555 53 5 3.0 15.0 0.01 0.69 0.34 81 1013.0
20240219224029 53 323 5.0 17.0 0.01 0.69 0.34 79 1013.1
20240219223529 53 360 9.0 17.0 0.01 0.69 0.34 79 1013.1
20240219223032 52 336 9.0 20.0 0.01 0.69 0.34 78 1013.2
20240219222530 52 329 9.0 20.0 0.01 0.69 0.34 80 1013.1
20240219222029 53 338 10.0 18.0 0.01 0.69 0.34 79 1013.1
20240219221537 52 342 6.0 20.0 0.01 0.69 0.34 80 1012.9
20240219221027 52 343 7.0 27.0 0.01 0.69 0.34 82 1013.0
20240219220526 52 9 8.0 27.0 0.01 0.69 0.34 83 1013.0
20240219220034 52 344 8.0 21.0 0.00 0.68 0.33 82 1013.0
20240219215531 52 19 10.0 21.0 0.00 0.68 0.33 80 1013.0
20240219215029 54 41 13.0 21.0 0.00 0.68 0.33 73 1012.7
20240219214533 55 23 9.0 31.0 0.00 0.68 0.33 69 1012.7
20240219214030 56 344 11.0 31.0 0.00 0.68 0.33 66 1012.7
20240219213530 56 308 13.0 25.0 0.00 0.68 0.33 65 1012.4
20240219213029 56 352 11.0 23.0 0.00 0.68 0.33 65 1012.4